Terug naar catalogus

STARLINK-34382

ActiefCommunicatieVLEO
NORAD 64667·PAYLOAD·🇺🇸 United States

Gelanceerd Jun 28, 2025 vanaf Cape Canaveral Space Force Station

Loading…

Volgende Passages (komende 24 uur)

TLE

VersSource: CelesTrak SupGP

Epoch: Sep 14, 2026, 14:33 UTC

1 64667C 25139D   26257.60673611  .00034857  00000+0  10303-2 0  2573
2 64667  53.1592 327.0905 0001324  78.5940 249.9126 15.34360957    12

Volg STARLINK-34382 in realtime met AllMySat

Download on the App Store